Time,TemperatureF,DewpointF,PressureIn,WindDirection,WindDirectionDegrees,WindSpeedMPH,WindSpeedGustMPH,Humidity,HourlyPrecipIn,Conditions,Clouds,dailyrainin,SoftwareType,DateUTC
2013-09-02 00:21:00,88.0,64.0,29.76,NW,307,4.0,14.0,45,0.00,,,-99.99,,2013-09-02 07:21:00,
2013-09-02 00:52:00,87.0,64.0,29.76,WNW,294,5.0,11.0,46,0.00,,,-99.99,,2013-09-02 07:52:00,
2013-09-02 01:22:00,87.0,64.0,29.76,WNW,302,5.0,10.0,46,0.00,,,-99.99,,2013-09-02 08:22:00,
2013-09-02 01:52:00,86.0,64.0,29.76,WNW,284,5.0,15.0,48,0.00,,,-99.99,,2013-09-02 08:52:00,
2013-09-02 02:22:00,86.0,64.0,29.77,NNW,332,5.0,10.0,48,0.00,,,-99.99,,2013-09-02 09:22:00,
2013-09-02 02:53:00,85.0,63.0,29.77,SW,227,5.0,14.0,48,0.00,,,-99.99,,2013-09-02 09:53:00,
2013-09-02 03:22:00,85.0,62.0,29.77,West,263,3.0,10.0,47,0.00,,,-99.99,,2013-09-02 10:22:00,
2013-09-02 03:53:00,85.0,64.0,29.77,West,280,3.0,7.0,49,0.00,,,-99.99,,2013-09-02 10:53:00,
2013-09-02 04:22:00,85.0,63.0,29.77,WNW,297,2.0,8.0,48,0.00,,,-99.99,,2013-09-02 11:22:00,
2013-09-02 04:52:00,84.0,63.0,29.76,SE,141,3.0,8.0,49,0.00,,,-99.99,,2013-09-02 11:52:00,
2013-09-02 05:21:00,84.0,63.0,29.76,NNW,336,3.0,8.0,50,0.00,,,-99.99,,2013-09-02 12:21:00,
2013-09-02 05:52:00,84.0,63.0,29.77,NNW,328,3.0,8.0,50,0.00,,,-99.99,,2013-09-02 12:52:00,
2013-09-02 06:21:00,83.0,63.0,29.78,NNE,29,2.0,7.0,51,0.00,,,-99.99,,2013-09-02 13:21:00,
2013-09-02 06:52:00,83.0,64.0,29.79,West,266,2.0,7.0,52,0.00,,,-99.99,,2013-09-02 13:52:00,
2013-09-02 07:22:00,84.0,63.0,29.80,NNW,328,1.0,7.0,49,0.00,,,-99.99,,2013-09-02 14:22:00,
2013-09-02 07:52:00,86.0,62.0,29.81,West,278,2.0,6.0,44,0.00,,,-99.99,,2013-09-02 14:52:00,
2013-09-02 08:22:00,88.0,63.0,29.81,NNW,328,2.0,7.0,43,0.00,,,-99.99,,2013-09-02 15:22:00,
2013-09-02 08:54:00,91.0,63.0,29.81,WNW,298,4.0,9.0,39,0.00,,,-99.99,,2013-09-02 15:54:00,
2013-09-02 09:24:00,94.0,63.0,29.81,WNW,293,1.0,7.0,36,0.00,,,-99.99,,2013-09-02 16:24:00,
2013-09-02 09:53:00,96.0,60.0,29.81,West,259,2.0,8.0,31,0.00,,,-99.99,,2013-09-02 16:53:00,
2013-09-02 10:23:00,99.0,59.0,29.81,West,260,3.0,6.0,27,0.00,,,-99.99,,2013-09-02 17:23:00,
2013-09-02 10:52:00,101.0,57.0,29.80,West,262,1.0,3.0,24,0.00,,,-99.99,,2013-09-02 17:52:00,
2013-09-02 11:22:00,103.0,59.0,29.80,NNW,335,1.0,3.0,24,0.00,,,-99.99,,2013-09-02 18:22:00,
2013-09-02 11:52:00,105.0,58.0,29.79,SW,225,0.0,4.0,22,0.00,,,-99.99,,2013-09-02 18:52:00,
2013-09-02 12:22:00,107.0,60.0,29.78,East,80,1.0,3.0,22,0.00,,,-99.99,,2013-09-02 19:22:00,
2013-09-02 12:52:00,108.0,58.0,29.77,SSW,212,2.0,4.0,20,0.00,,,-99.99,,2013-09-02 19:52:00,
2013-09-02 13:22:00,107.0,57.0,29.76,SE,143,1.0,4.0,20,0.00,,,-99.99,,2013-09-02 20:22:00,
2013-09-02 13:52:00,108.0,57.0,29.75,West,281,1.0,4.0,19,0.00,,,-99.99,,2013-09-02 20:52:00,
2013-09-02 14:23:00,109.0,59.0,29.74,WNW,283,0.0,5.0,20,0.00,,,-99.99,,2013-09-02 21:23:00,
2013-09-02 14:55:00,105.0,58.0,29.72,NW,305,4.0,10.0,22,0.00,,,-99.99,,2013-09-02 21:55:00,
2013-09-02 15:23:00,102.0,57.0,29.72,WNW,298,6.0,14.0,23,0.00,,,-99.99,,2013-09-02 22:23:00,
2013-09-02 15:54:00,100.0,59.0,29.71,NW,311,2.0,12.0,26,0.00,,,-99.99,,2013-09-02 22:54:00,
2013-09-02 16:22:00,100.0,61.0,29.72,West,274,0.0,7.0,28,0.00,,,-99.99,,2013-09-02 23:22:00,
2013-09-02 16:52:00,100.0,61.0,29.72,SSW,197,0.0,1.0,28,0.00,,,-99.99,,2013-09-02 23:52:00,
2013-09-02 17:21:00,100.0,60.0,29.71,NW,316,0.0,1.0,27,0.00,,,-99.99,,2013-09-03 00:21:00,
2013-09-02 17:42:00,100.0,60.0,29.70,East,91,0.0,1.0,27,0.00,,,-99.99,,2013-09-03 00:42:00,
2013-09-02 17:52:00,100.0,59.0,29.70,West,265,0.0,2.0,26,0.00,,,-99.99,,2013-09-03 00:52:00,
2013-09-02 18:21:00,97.0,59.0,29.70,West,269,5.0,12.0,29,0.00,,,-99.99,,2013-09-03 01:21:00,
2013-09-02 18:52:00,95.0,60.0,29.70,NNW,342,4.0,9.0,31,0.00,,,-99.99,,2013-09-03 01:52:00,
2013-09-02 19:21:00,95.0,60.0,29.70,WNW,290,4.0,6.0,32,0.00,,,-99.99,,2013-09-03 02:21:00,
2013-09-02 19:52:00,94.0,60.0,29.72,SW,235,3.0,9.0,33,0.00,,,-99.99,,2013-09-03 02:52:00,
2013-09-02 20:23:00,95.0,60.0,29.73,West,266,3.0,9.0,31,0.00,,,-99.99,,2013-09-03 03:23:00,
2013-09-02 20:55:00,94.0,60.0,29.75,North,356,3.0,9.0,33,0.00,,,-99.99,,2013-09-03 03:55:00,
2013-09-02 21:24:00,94.0,60.0,29.75,West,281,4.0,10.0,32,0.00,,,-99.99,,2013-09-03 04:24:00,
2013-09-02 21:53:00,93.0,60.0,29.75,West,274,4.0,10.0,34,0.00,,,-99.99,,2013-09-03 04:53:00,
2013-09-02 22:23:00,93.0,63.0,29.76,WNW,297,2.0,8.0,37,0.00,,,-99.99,,2013-09-03 05:23:00,
2013-09-02 22:52:00,91.0,63.0,29.77,WNW,295,3.0,11.0,40,0.00,,,-99.99,,2013-09-03 05:52:00,
2013-09-02 23:22:00,91.0,62.0,29.78,WNW,284,1.0,7.0,38,0.00,,,-99.99,,2013-09-03 06:22:00,
2013-09-02 23:52:00,91.0,63.0,29.78,WNW,283,0.0,1.0,39,0.00,,,-99.99,,2013-09-03 06:52:00,